Hourly Weather Holovchyntsi

Today, 13 April, Tuesday

Time Temperature Precipitation Wind Pressure Humidity
00:00 +8°C° 0 mm 2 mps 737 mmHg 88%
01:00 +8°C° 0 mm 2 mps 736 mmHg 87%
02:00 +10°C° 0 mm 1 mps 736 mmHg 62%
03:00 +8°C° 0 mm 2 mps 736 mmHg 77%
04:00 +7°C° 0 mm 2 mps 736 mmHg 81%
05:00 +8°C° 0 mm 1 mps 736 mmHg 81%
06:00 +7°C° 0 mm 1 mps 736 mmHg 83%
07:00 +7°C° 0 mm 1 mps 736 mmHg 88%
08:00 +9°C° 0 mm 1 mps 736 mmHg 88%
09:00 +10°C° 0 mm 0 mps 736 mmHg 80%
10:00 +13°C° 0 mm 1 mps 736 mmHg 78%
11:00 +14°C° 0 mm 1 mps 736 mmHg 75%
12:00 +15°C° 0 mm 1 mps 736 mmHg 71%
13:00 +16°C° 0 mm 1 mps 736 mmHg 66%
14:00 +17°C° 0 mm 3 mps 736 mmHg 51%
15:00 +15°C° 0 mm 5 mps 736 mmHg 71%
16:00 +13°C° 0 mm 6 mps 735 mmHg 81%
17:00 +11°C° 0 mm 6 mps 735 mmHg 87%
18:00 +10°C° 0 mm 6 mps 735 mmHg 89%
19:00 +9°C° 0 mm 5 mps 734 mmHg 91%
20:00 +8°C° 0 mm 5 mps 734 mmHg 93%
21:00 +8°C° 0 mm 4 mps 734 mmHg 95%
22:00 +9°C° 0 mm 3 mps 734 mmHg 97%
23:00 +8°C° 0 mm 3 mps 734 mmHg 98%

Tomorrow, 14 April, Wednesday

Time Temperature Precipitation Wind Pressure Humidity
00:00 +7°C° 0 mm 4 mps 733 mmHg 98%
01:00 +7°C° 0 mm 3 mps 732 mmHg 100%
02:00 +7°C° 0 mm 3 mps 732 mmHg 100%
03:00 +7°C° 0 mm 2 mps 731 mmHg 100%
04:00 +8°C° 0 mm 1 mps 731 mmHg 100%
05:00 +7°C° 0 mm 2 mps 731 mmHg 100%
06:00 +5°C° 0.5 mm 3 mps 730 mmHg 100%
07:00 +5°C° 1.9 mm 2 mps 731 mmHg 100%
08:00 +5°C° 1.5 mm 2 mps 731 mmHg 99%
09:00 +6°C° 0.5 mm 1 mps 731 mmHg 99%
10:00 +7°C° 0.3 mm 1 mps 731 mmHg 98%
11:00 +8°C° 0.1 mm 1 mps 731 mmHg 98%
12:00 +8°C° 0 mm 2 mps 731 mmHg 97%
13:00 +8°C° 0 mm 2 mps 731 mmHg 96%
14:00 +9°C° 0 mm 2 mps 731 mmHg 93%
15:00 +10°C° 0 mm 2 mps 731 mmHg 93%
16:00 +10°C° 0.3 mm 3 mps 730 mmHg 94%
17:00 +9°C° 2.8 mm 3 mps 730 mmHg 98%
18:00 +7°C° 0.6 mm 5 mps 730 mmHg 98%
19:00 +6°C° 0.2 mm 5 mps 730 mmHg 99%
20:00 +5°C° 0.1 mm 5 mps 730 mmHg 99%
21:00 +5°C° 0.3 mm 5 mps 730 mmHg 99%
22:00 +3°C° 0 mm 5 mps 730 mmHg 99%
23:00 +3°C° 0.1 mm 5 mps 730 mmHg 100%

Day after tomorrow, 15 April, Thursday

Time Temperature Precipitation Wind Pressure Humidity
00:00 +3°C° 0.1 mm 5 mps 730 mmHg 100%
01:00 +3°C° 0 mm 5 mps 729 mmHg 99%
02:00 +2°C° 0.2 mm 5 mps 729 mmHg 100%
03:00 +2°C° 0.5 mm 5 mps 729 mmHg 100%
04:00 +1°C° 0.3 mm 6 mps 729 mmHg 100%
05:00 +1°C° 0.1 mm 6 mps 729 mmHg 99%
06:00 +1°C° 0.3 mm 5 mps 729 mmHg 100%
07:00 +1°C° 1.7 mm 6 mps 729 mmHg 100%
08:00 0°C° 1.6 mm 5 mps 729 mmHg 100%
09:00 +1°C° 1.2 mm 6 mps 729 mmHg 100%
10:00 +1°C° 0.4 mm 6 mps 729 mmHg 99%
11:00 +2°C° 0 mm 5 mps 729 mmHg 99%
12:00 +2°C° 0 mm 6 mps 729 mmHg 99%
13:00 +3°C° 0 mm 6 mps 729 mmHg 99%
14:00 +3°C° 1.1 mm 6 mps 729 mmHg 99%
15:00 +3°C° 2.7 mm 6 mps 729 mmHg 99%
16:00 +3°C° 3.2 mm 6 mps 729 mmHg 100%
17:00 +3°C° 2.8 mm 7 mps 729 mmHg 99%
18:00 +3°C° 0.5 mm 7 mps 729 mmHg 99%
19:00 +3°C° 3.1 mm 7 mps 729 mmHg 100%
20:00 +1°C° 2.4 mm 8 mps 729 mmHg 100%
21:00 +1°C° 0.1 mm 8 mps 729 mmHg 100%
22:00 +2°C° 0.4 mm 7 mps 728 mmHg 100%
23:00 +2°C° 0.2 mm 7 mps 728 mmHg 100%

16 April, Friday

Time Temperature Precipitation Wind Pressure Humidity
00:00 +1°C° 0 mm 6 mps 728 mmHg 99%
01:00 +1°C° 0 mm 6 mps 728 mmHg 99%
02:00 +1°C° 0 mm 5 mps 728 mmHg 100%
03:00 +1°C° 0 mm 5 mps 728 mmHg 100%
04:00 +1°C° 0.9 mm 5 mps 728 mmHg 100%
05:00 +1°C° 0.8 mm 4 mps 728 mmHg 100%
06:00 +1°C° 0.1 mm 5 mps 728 mmHg 100%
07:00 +3°C° 0 mm 4 mps 729 mmHg 100%
08:00 +4°C° 0.2 mm 4 mps 729 mmHg 100%
09:00 +3°C° 0 mm 5 mps 729 mmHg 99%
10:00 +4°C° 0 mm 6 mps 730 mmHg 99%
11:00 +5°C° 0 mm 6 mps 730 mmHg 99%
12:00 +7°C° 0 mm 6 mps 731 mmHg 99%
13:00 +8°C° 0 mm 7 mps 731 mmHg 98%
14:00 +8°C° 0 mm 7 mps 731 mmHg 99%
15:00 +8°C° 0 mm 7 mps 731 mmHg 98%
16:00 +7°C° 0 mm 8 mps 731 mmHg 98%
17:00 +7°C° 0 mm 8 mps 732 mmHg 98%
18:00 +6°C° 0 mm 8 mps 732 mmHg 98%
19:00 +6°C° 0 mm 7 mps 732 mmHg 98%
20:00 +5°C° 0 mm 7 mps 733 mmHg 98%
21:00 +5°C° 0 mm 7 mps 733 mmHg 98%
22:00 +4°C° 0 mm 7 mps 733 mmHg 99%
23:00 +4°C° 0 mm 6 mps 733 mmHg 99%

17 April, Saturday

Time Temperature Precipitation Wind Pressure Humidity
00:00 +4°C° 0 mm 6 mps 733 mmHg 100%
01:00 +3°C° 0 mm 6 mps 733 mmHg 100%
02:00 +3°C° 0 mm 5 mps 734 mmHg 100%
03:00 +3°C° 0 mm 5 mps 734 mmHg 100%
04:00 +3°C° 0 mm 5 mps 734 mmHg 100%
05:00 +4°C° 0 mm 4 mps 734 mmHg 100%
06:00 +4°C° 0 mm 4 mps 734 mmHg 100%
07:00 +3°C° 0 mm 5 mps 735 mmHg 100%
08:00 +4°C° 0 mm 4 mps 735 mmHg 100%
09:00 +5°C° 0.1 mm 3 mps 735 mmHg 99%
10:00 +5°C° 0.1 mm 3 mps 735 mmHg 99%
11:00 +7°C° 0.2 mm 3 mps 736 mmHg 99%
12:00 +8°C° 0.1 mm 3 mps 736 mmHg 98%
13:00 +9°C° 0 mm 3 mps 736 mmHg 97%
14:00 +11°C° 0 mm 1 mps 736 mmHg 94%
15:00 +12°C° 0 mm 1 mps 736 mmHg 88%
16:00 +13°C° 0 mm 1 mps 735 mmHg 86%
17:00 +13°C° 0 mm 1 mps 735 mmHg 91%
18:00 +13°C° 0 mm 1 mps 735 mmHg 89%
19:00 +12°C° 0 mm 1 mps 735 mmHg 96%
20:00 +11°C° 0 mm 1 mps 736 mmHg 95%
21:00 +9°C° 0 mm 2 mps 735 mmHg 98%
22:00 +10°C° 0 mm 1 mps 735 mmHg 96%
23:00 +9°C° 0 mm 2 mps 735 mmHg 100%

18 April, Sunday

Time Temperature Precipitation Wind Pressure Humidity
00:00 +8°C° 0 mm 2 mps 735 mmHg 100%
01:00 +8°C° 0 mm 1 mps 735 mmHg 100%
02:00 +8°C° 0 mm 1 mps 735 mmHg 100%
03:00 +8°C° 0 mm 1 mps 735 mmHg 100%
04:00 +7°C° 0 mm 2 mps 735 mmHg 100%
05:00 +7°C° 0 mm 2 mps 735 mmHg 100%
06:00 +8°C° 0 mm 2 mps 735 mmHg 100%
07:00 +8°C° 0 mm 2 mps 735 mmHg 100%
08:00 +8°C° 0 mm 3 mps 735 mmHg 100%
09:00 +8°C° 0 mm 3 mps 735 mmHg 100%
10:00 +8°C° 0 mm 4 mps 736 mmHg 99%
11:00 +8°C° 0 mm 4 mps 736 mmHg 99%
12:00 +10°C° 0 mm 4 mps 736 mmHg 99%
13:00 +12°C° 0 mm 4 mps 736 mmHg 98%
14:00 +12°C° 0.8 mm 5 mps 736 mmHg 92%
15:00 +13°C° 0.1 mm 6 mps 736 mmHg 84%
16:00 +11°C° 0.1 mm 6 mps 735 mmHg 91%
17:00 +11°C° 0 mm 7 mps 735 mmHg 91%
18:00 +10°C° 0.6 mm 5 mps 736 mmHg 98%
19:00 +9°C° 3.9 mm 5 mps 736 mmHg 98%
20:00 +8°C° 0.7 mm 6 mps 736 mmHg 100%
21:00 +8°C° 0 mm 6 mps 736 mmHg 98%
22:00 +8°C° 0.6 mm 6 mps 736 mmHg 100%
23:00 +9°C° 2.5 mm 3 mps 736 mmHg 100%
Show more